Location: *
(37.5724°S, 58.0067°E)
Time: 10:35:32
(UTC+00:00)

H-2A ROCKET BODY - Pass Details

Date: 17 January 2021
Orbit: 216 x 15031 km, 28.6° (Epoch: 07 March)

Event Time Altitude Azimuth Distance (km) Brightness Sun altitude
Rises 16:29:54 0° 356° (N) 9,716 7.3 -10.9°
Reaches altitude 10° 16:38:59 10° 7° (N) 10,635 7.4 -12.3°
Maximum altitude 18:13:08 35° 65° (ENE) 17,220 8.3 -24.8°
Drops below altitude 10° 19:38:49 10° 102° (ESE) 13,225 8.3 -31.1°
Sets 19:49:00 0° 107° (ESE) 12,491 8.3 -31.4°
